Content
SEND FEEDBACK

Daily
Averages
Monthly
Summary
Australia

DUNBOGAN, NEW SOUTH WALES


Home > Oceania > Australia > New South Wales
Elevation: 16 feet     Latitude: 31 39S     Longitude: 152 48E

WEATHER
 
SELECT A DAY
Number of Records: 121,108;   Date Range: 2/21/03 - 10/20/14
 
SHARE

PRINT THIS DATA

[ ← Previous Day ]
WEATHER ALMANAC - JANUARY 31, 2013
[ Next Day → ]
[ °C ]   °F
Weather ElementAverageHighLow
Temperature75.4 °F84.2 °F (12:00 pm)66.2 °F (5:30 am)
Dewpoint69.1 °F72 °F (6:00 pm)66.2 °F (5:00 am)
Humidity81.1 %100 % (4:00 am)56 % (12:00 pm)
Barometer29.86 in29.98 in (12:00 am)29.74 in (5:00 pm)
Wind Speed6.3 mph18.4 mph (5:00 pm)
Weather ElementAverage
Wind DirectionNNE (37.9 °)

Weather ElementTotal
Precipitation---
Cooling Degree Days10.2 (Base 65)
Growing Degree Days25.2 (Base 50)
Averaged from 35 records on January 31, 2013
WEATHER CONDITIONS BREAKOUT
WIND DIRECTION BREAKOUT
WEATHER BY HOUR - JANUARY 31, 2013
[ °C ]   °F
Local TimeTemperatureDewpointHumidityBarometerVisibilityWind DirectionWind SpeedGust SpeedPrecipitationEventsConditions
12:00 AM73.4 °F69.8 °F88 %29.98 inCalmOvercast
1:00 AM71.6 °F69.8 °F94 %29.95 inCalmOvercast
2:00 AM71.6 °F69.8 °F94 %29.95 inCalm
3:00 AM69.0 °F68.0 °F96 %29.93 inCalm
3:00 AM69.8 °F68.0 °F94 %29.92 inCalm
4:00 AM68.0 °F68.0 °F100 %29.92 inCalm
5:00 AM68.0 °F66.2 °F94 %29.92 inCalmOvercast
5:30 AM66.2 °F66.2 °F100 %29.92 inCalmOvercast
6:00 AM66.2 °F66.2 °F100 %29.92 inCalmOvercast
6:00 AM67.0 °F67.0 °F98 %29.92 inCalmOvercast
6:30 AM66.2 °F66.2 °F100 %29.92 inCalmOvercast
7:00 AM68.0 °F68.0 °F100 %29.92 inCalmOvercast
7:30 AM68.0 °F68.0 °F100 %29.92 inCalmOvercast
8:00 AM69.8 °F69.8 °F100 %29.92 inCalmOvercast
8:30 AM71.6 °F68.0 °F88 %29.92 inNNE (30°)2.3 mphMostly Cloudy
9:00 AM73.0 °F68.0 °F80 %29.93 inENE (70°)2.3 mph
9:00 AM73.4 °F68.0 °F83 %29.92 inENE (70°)2.3 mph
10:00 AM78.8 °F68.0 °F69 %29.92 inNE (40°)6.9 mph
11:00 AM82.4 °F68.0 °F62 %29.89 inENE (60°)8.1 mph
12:00 PM83.0 °F70.0 °F56 %29.88 inENE (70°)10.4 mph
12:00 PM84.2 °F69.8 °F62 %29.86 inENE (70°)10.4 mph
1:00 PM84.2 °F69.8 °F62 %29.83 inEast (90°)13.8 mph
2:00 PM84.2 °F69.8 °F62 %29.80 inEast (90°)13.8 mph
3:00 PM84.0 °F71.0 °F57 %29.79 inEast (80°)13.8 mph
3:00 PM84.2 °F71.6 °F66 %29.77 inEast (80°)13.8 mph
4:00 PM84.2 °F71.6 °F66 %29.77 inEast (80°)17.3 mph
5:00 PM84.2 °F71.6 °F66 %29.74 inENE (70°)18.4 mph
6:00 PM83.0 °F72.0 °F61 %29.75 inNE (50°)13.8 mph
6:00 PM84.2 °F71.6 °F66 %29.74 inNE (50°)13.8 mph
7:00 PM80.6 °F71.6 °F74 %29.74 inNE (40°)12.7 mph
8:00 PM77.0 °F71.6 °F83 %29.77 inNE (50°)11.5 mph
9:00 PM76.0 °F69.0 °F75 %29.78 inNNE (30°)8.1 mph
9:00 PM77.0 °F69.8 °F78 %29.77 inNNE (30°)8.1 mph
10:00 PM75.2 °F68.0 °F78 %29.77 inNE (40°)8.1 mph
11:00 PM73.4 °F69.8 °F88 %29.77 inENE (60°)10.4 mph
Hourly data recorded from YPMQ, located miles away from Dunbogan, New South Wales







STORIES FROM OUR PARTNERS